Wind_Speed
6 4 6 11 12 13 13 12 9 4 2 4 4 4 5 5 6 5 3 3 5 4 7 9 12 13 9 10 13 13 14 13 12 12 12 13 13 13 15 14 15 16 15 17 24 28 29 30 30 30 30 31 31 32 33 33 34 35 35 34 35 35 34 33 33 32 31 31 30 30 31 31 31 31 30 29 27 25 23 22 20 19 18 17 17 18
5 6 12 15 11 8 8 9 8 7 7 3 2 3 4 5 6 6 4 2 3 3 5 7 9 11 10 9 11 13 14 14 14 15 15 16 15 13 15 17 17 14 11 14 19 24 29 29 30 31 30 31 32 32 34 35 36 36 36 36 36 35 35 36 37 35 35 35 34 33 33 32 31 30 31 30 29 26 24 23 21 19 18 18 18 19
5 10 17 13 7 6 6 8 9 9 10 7 4 3 4 4 3 6 6 2 2 3 4 5 7 10 10 9 11 14 16 16 16 18 18 18 17 15 16 17 16 13 12 14 16 21 27 29 30 31 30 32 33 33 35 36 36 36 36 37 36 35 36 38 38 38 37 36 35 33 32 30 29 28 29 29 28 26 25 23 21 20 19 18 19 20
7 11 14 8 7 8 8 7 10 9 8 7 6 5 5 4 3 4 5 1 2 4 3 4 4 7 6 5 9 15 16 15 16 18 17 16 19 19 19 16 15 16 15 16 16 17 23 27 30 31 30 32 32 33 34 35 36 36 37 37 36 37 37 38 38 39 38 35 32 30 28 27 25 24 24 25 26 26 25 24 23 22 21 19 19 20
8 8 5 11 9 10 10 8 9 8 7 8 8 8 6 5 4 3 3 3 3 3 1 4 1 6 4 5 7 11 11 10 11 13 12 12 15 14 13 13 14 16 15 16 17 17 19 24 29 31 31 31 32 33 34 36 37 37 37 38 38 38 37 37 38 38 36 31 28 27 24 22 21 20 20 21 24 25 25 25 25 24 23 20 19 20
10 6 7 14 12 11 11 10 9 8 5 6 9 10 9 7 5 2 4 3 4 4 3 4 2 6 4 6 9 8 9 11 9 11 14 14 13 11 11 13 15 15 14 15 17 18 18 22 26 30 31 31 32 34 35 37 38 37 38 39 38 37 37 37 37 36 34 32 29 28 25 23 22 21 20 23 26 27 27 27 27 26 24 22 20 20
7 5 7 11 13 12 11 9 9 9 6 7 8 9 9 7 4 2 0 1 1 4 5 1 4 5 4 4 9 7 11 15 12 13 17 15 12 12 14 14 14 15 14 14 15 16 17 21 24 27 31 33 33 35 36 36 37 38 37 38 38 38 37 36 35 35 34 33 31 30 30 28 27 25 26 28 30 30 29 28 27 26 25 23 21 21
6 8 8 8 10 11 11 10 10 11 8 7 5 8 8 7 6 5 3 4 3 3 5 1 4 3 4 6 7 7 11 14 13 16 17 14 14 16 16 14 15 16 16 14 15 16 17 20 24 27 32 35 35 35 35 35 37 38 38 38 39 38 36 36 35 35 35 34 33 32 31 30 29 29 29 29 29 29 28 27 26 26 25 24 22 21
7 11 11 9 8 8 10 11 11 12 9 6 6 9 8 8 8 6 4 5 2 2 6 4 5 3 5 6 4 5 9 11 14 18 17 15 17 18 17 17 16 16 16 15 16 17 17 21 26 30 32 33 34 34 35 36 37 38 38 38 38 38 36 36 36 36 37 37 35 34 32 30 30 29 27 25 25 26 27 27 27 26 25 24 23 23
5 9 12 10 8 7 9 9 10 12 10 4 6 7 6 7 6 5 6 5 2 4 9 7 6 4 5 6 4 2 7 11 13 15 15 16 18 18 18 18 17 14 14 15 16 16 18 23 29 31 31 32 33 34 35 36 36 37 38 37 38 38 36 36 36 37 38 38 36 34 34 32 30 28 25 23 24 25 26 26 27 27 26 25 25 25
4 5 10 10 8 6 7 7 8 13 11 5 6 3 3 2 3 4 3 3 3 7 11 9 8 6 5 5 5 4 6 10 10 11 12 14 16 17 16 16 15 13 13 15 15 15 17 23 28 29 30 32 33 34 34 35 36 36 37 37 37 38 37 36 37 38 38 38 37 35 35 34 31 28 25 25 24 25 26 27 28 29 28 27 26 26
6 5 5 5 7 8 6 5 6 10 11 6 5 4 1 2 2 2 0 2 6 9 9 8 9 9 8 6 6 7 8 10 11 12 13 15 17 17 16 16 15 15 15 14 14 13 14 18 23 26 29 31 33 33 33 35 35 36 37 37 37 37 37 37 37 38 38 38 37 37 36 35 33 30 28 28 27 27 28 29 29 29 29 28 27 26
6 7 5 3 7 10 8 6 5 6 8 7 5 6 5 2 1 4 4 3 7 7 4 6 8 7 9 8 9 10 10 11 12 12 14 17 19 19 18 17 15 15 15 14 14 14 14 15 18 22 27 30 32 33 34 35 35 35 36 37 37 37 38 37 37 38 38 38 38 38 36 35 34 32 31 30 29 29 30 30 29 29 29 28 28 27
4 5 8 6 5 9 11 8 6 5 6 8 7 6 6 5 4 6 6 4 5 6 4 5 6 5 4 6 13 16 15 13 11 12 14 16 18 19 18 17 15 15 15 14 14 14 15 16 17 21 27 29 31 34 35 36 36 36 36 37 38 37 38 38 38 38 38 39 39 39 37 36 34 33 33 32 32 31 30 30 30 30 30 30 30 30
3 4 8 8 3 5 11 10 7 6 7 8 8 6 5 5 5 5 4 4 4 4 5 3 5 5 4 5 12 16 16 13 11 12 13 14 15 14 12 12 13 13 14 13 14 15 17 17 19 23 27 29 31 34 35 36 37 37 36 38 39 38 39 39 38 38 39 39 40 39 37 36 35 35 35 33 33 32 32 31 31 31 31 31 32 32
2 4 3 3 6 3 9 9 8 8 6 7 7 6 6 6 5 3 4 5 3 2 5 3 4 5 4 5 6 9 12 11 12 13 12 14 13 10 9 11 13 14 14 14 14 16 17 17 20 24 27 29 31 34 35 36 38 38 37 38 40 40 39 40 39 39 39 40 39 38 38 37 36 36 35 34 33 33 33 33 33 33 33 33 32 32
2 5 6 10 11 5 4 5 8 10 6 4 6 8 6 5 6 3 4 1 3 4 5 3 4 4 2 6 5 4 8 10 11 12 13 14 11 10 11 13 15 15 15 16 16 17 16 16 20 25 28 29 31 34 37 38 39 40 39 39 40 39 39 40 40 39 39 39 38 38 38 37 37 36 35 35 35 34 34 33 33 33 33 33 32 32
1 6 9 8 7 6 8 7 8 11 8 5 6 8 5 4 4 4 4 2 2 6 4 2 6 5 4 5 3 3 8 10 11 12 13 13 10 11 12 13 15 16 17 18 18 17 16 15 17 23 27 31 34 36 37 39 39 40 40 40 40 40 40 40 41 40 39 39 37 37 37 38 38 37 37 37 36 34 33 32 32 32 32 33 32 31
1 4 7 3 4 8 10 6 6 7 9 7 5 8 7 3 5 6 4 5 5 5 4 3 4 4 6 6 3 6 10 11 12 12 11 12 10 11 13 13 15 15 15 16 16 14 14 15 17 23 28 31 34 36 36 38 38 38 39 40 41 42 42 41 40 40 39 38 37 37 37 38 38 38 37 36 34 33 33 33 33 33 33 33 32 31
1 1 4 2 3 8 7 3 5 6 9 7 5 7 6 4 5 6 4 4 4 4 3 3 3 3 6 6 8 11 12 12 13 12 11 13 13 12 13 13 13 14 14 15 15 15 16 17 21 28 31 32 34 34 34 36 36 37 38 38 39 40 41 41 40 40 39 38 37 36 36 37 37 38 37 35 34 34 34 34 33 33 33 32 32 31
2 1 3 5 7 5 3 2 3 3 4 4 4 5 5 3 2 4 3 3 4 4 3 3 4 5 5 5 10 13 13 13 14 13 12 13 13 13 14 13 13 13 14 15 15 16 18 18 21 28 31 31 31 31 32 35 36 37 37 38 39 39 38 39 39 39 39 38 37 36 36 37 37 37 37 36 35 35 35 34 33 33 33 32 32 32
1 1 2 5 6 3 6 6 2 2 2 2 3 3 6 5 3 4 5 3 4 4 4 3 4 6 6 4 8 11 12 13 14 14 13 13 14 14 14 14 14 14 15 16 16 16 17 17 18 23 27 28 29 31 33 35 36 36 36 37 38 38 38 39 39 39 39 38 37 38 37 37 37 37 36 36 35 35 35 34 33 33 32 32 32 32
2 0 1 5 4 7 16 17 10 7 5 4 4 2 3 3 4 6 6 3 3 4 3 3 5 7 6 5 8 9 9 11 12 12 12 12 11 12 13 14 13 14 15 16 16 16 15 15 16 20 24 27 30 31 33 34 34 36 37 37 36 37 38 39 40 40 40 38 38 38 38 37 36 37 36 36 36 36 35 34 33 33 33 32 33 33
4 1 1 4 5 7 13 11 6 4 1 1 2 3 3 3 2 4 5 4 4 4 4 4 7 8 6 4 5 6 5 5 8 10 11 11 8 9 12 13 12 13 14 14 15 14 12 12 13 15 18 23 26 29 31 33 34 35 36 36 37 37 39 39 39 39 39 38 38 38 37 36 35 36 36 36 36 36 36 35 33 33 33 33 33 33
3 0 1 3 3 4 5 2 1 4 5 3 4 5 4 6 9 7 1 3 4 7 8 6 8 8 4 0 1 4 4 3 5 7 9 9 7 8 10 11 12 13 13 14 14 13 12 12 13 14 15 20 25 28 31 33 33 35 36 37 37 37 38 38 38 38 38 38 37 36 36 36 35 35 36 36 36 36 36 35 34 33 33 33 33 33
2 1 2 3 2 3 3 2 1 4 5 5 6 8 8 8 9 6 1 2 5 7 7 6 8 7 3 2 3 3 3 4 6 6 6 7 7 6 7 9 11 12 13 15 15 14 13 14 15 16 16 20 25 27 29 32 33 34 35 36 37 37 37 37 37 37 37 37 36 36 36 36 36 36 37 37 37 37 36 35 34 34 34 34 34 34
2 1 2 4 4 5 4 3 3 4 6 8 10 14 12 7 5 3 2 4 4 4 4 6 9 10 7 5 6 6 6 6 6 6 6 7 9 8 8 9 11 12 14 15 15 14 14 14 16 17 17 20 25 27 29 31 33 33 34 35 36 36 36 37 37 37 37 37 36 36 37 37 38 38 38 38 38 38 37 36 36 35 35 35 35 35
1 1 2 5 6 7 7 7 8 8 9 11 13 15 15 11 7 4 6 6 1 3 7 7 7 11 13 10 9 9 10 9 8 9 9 9 10 10 10 10 12 14 14 14 14 15 16 16 17 17 17 19 24 26 27 29 31 33 34 35 35 36 36 37 37 38 37 37 37 37 38 40 40 40 40 39 39 38 37 37 36 36 36 35 35 36
1 2 3 4 5 7 7 8 11 10 10 11 12 14 16 14 10 8 9 9 6 5 7 6 7 11 15 13 9 8 9 9 9 9 8 8 9 10 10 12 14 16 15 15 15 16 17 17 17 17 17 18 22 25 26 28 30 31 32 34 35 36 37 38 38 38 37 37 38 39 40 40 39 39 38 37 36 36 36 36 36 36 36 36 36 36
2 3 3 3 4 5 7 9 10 9 8 10 12 13 14 13 13 13 12 12 11 9 9 9 11 14 12 9 6 4 5 7 7 6 5 7 8 10 12 14 15 16 16 16 17 17 18 18 18 17 16 16 19 24 26 27 29 32 33 34 36 37 38 38 38 38 37 37 39 39 38 38 37 36 36 35 35 35 36 36 36 36 36 36 37 36
2 2 2 1 2 4 6 6 6 6 7 10 12 11 10 11 12 11 10 10 9 9 11 12 12 11 5 4 5 4 3 2 3 6 6 7 8 9 11 13 14 15 15 16 16 16 17 16 16 15 15 16 19 25 27 28 31 32 33 34 36 37 37 38 37 37 37 38 38 37 36 36 36 35 35 36 36 36 37 37 36 35 36 36 36 35
2 2 3 2 1 4 4 3 5 8 8 9 9 8 7 7 8 5 4 3 3 5 8 10 9 7 5 8 7 5 6 7 7 8 8 7 7 8 11 11 13 14 15 16 16 16 16 16 15 17 17 18 22 26 28 29 29 30 32 34 36 36 36 37 37 37 37 36 36 36 36 36 35 35 36 36 37 37 37 36 36 36 36 36 35 35
2 3 3 0 0 4 3 3 9 9 5 5 4 4 4 4 7 6 3 6 4 2 3 6 7 6 8 8 6 4 7 8 7 8 8 9 8 7 8 9 11 13 14 16 16 16 17 16 16 18 19 20 25 30 32 32 32 33 35 36 35 35 35 36 35 35 35 35 36 36 36 36 36 36 36 37 38 37 37 36 36 36 36 36 36 36
4 4 3 1 0 3 4 6 6 3 3 4 4 2 3 2 7 9 5 7 7 3 2 4 5 8 11 7 2 4 6 6 5 6 7 8 8 7 7 7 8 9 11 13 15 16 16 15 15 17 20 25 30 32 33 33 32 30 30 31 33 34 34 34 33 33 34 35 36 36 36 36 36 36 37 37 38 37 37 37 37 37 37 36 36 35
4 5 3 1 2 2 4 5 1 5 3 4 7 6 6 1 6 11 7 5 11 10 8 8 8 10 10 7 2 2 4 4 4 8 11 11 10 7 5 6 7 8 8 9 11 12 13 14 13 14 18 24 27 27 29 29 27 26 28 30 32 33 33 33 33 33 34 35 35 35 36 36 36 36 36 37 37 36 37 37 37 37 37 36 36 36
5 4 3 2 2 1 2 0 3 3 3 0 3 7 8 3 7 11 5 5 13 14 12 12 11 11 10 8 7 3 1 2 4 10 14 14 13 11 5 2 5 8 9 9 10 11 11 13 14 15 18 22 25 26 27 27 27 27 29 31 31 31 32 32 32 32 33 33 34 35 35 36 36 35 36 36 36 35 35 36 36 37 37 36 36 36
7 5 3 2 2 1 1 2 3 3 3 1 1 5 6 3 5 7 4 3 11 14 14 13 13 13 11 9 9 7 5 3 5 9 14 16 15 13 9 5 1 5 8 8 8 9 11 14 16 18 20 23 25 27 27 28 29 28 28 28 29 30 31 31 31 32 32 32 34 35 36 36 36 36 36 35 35 35 35 36 37 37 37 35 34 35
8 7 4 2 2 1 0 2 3 2 3 3 1 4 4 4 6 5 4 2 8 15 16 15 14 14 12 10 9 7 3 3 6 7 11 15 15 13 10 9 6 4 4 7 9 10 12 17 19 21 24 24 24 25 27 28 29 28 27 28 29 30 29 29 30 31 32 33 35 36 36 37 37 37 36 35 35 36 37 37 37 37 36 35 35 36
11 8 4 3 2 1 1 2 2 2 3 1 5 8 7 6 5 3 3 0 8 15 17 16 16 15 12 10 9 5 3 4 4 5 9 13 13 12 10 10 10 8 7 7 10 12 15 20 23 24 26 25 24 26 29 30 30 28 26 27 29 29 28 29 31 32 33 35 36 36 36 36 37 36 35 35 36 37 38 37 37 37 36 35 35 36
10 6 5 4 3 3 3 3 3 3 2 3 8 11 11 7 1 3 3 2 10 15 16 16 16 15 12 10 7 7 6 4 3 4 8 10 11 11 10 10 11 10 9 9 10 13 18 22 22 22 22 24 27 30 33 33 31 29 27 27 28 28 28 31 33 33 35 35 34 34 34 35 35 36 35 36 37 38 38 37 36 35 34 34 34 34
6 5 5 5 4 4 5 3 3 3 2 6 10 12 12 6 2 3 1 4 10 14 14 14 16 15 12 10 8 7 5 4 4 6 9 11 12 12 11 11 12 14 13 13 13 15 16 17 18 18 18 22 28 31 33 33 29 25 24 25 25 26 29 32 33 33 34 33 31 32 32 33 34 36 36 37 37 37 36 35 34 33 32 33 33 32
4 4 4 4 4 3 4 2 3 2 1 8 11 10 8 2 3 2 3 4 9 13 14 13 14 14 12 11 9 5 4 7 10 11 12 13 12 13 14 13 13 15 16 17 18 17 16 15 16 16 14 18 25 29 30 29 24 20 21 22 21 23 26 28 30 31 31 30 30 30 31 32 33 34 35 35 35 33 33 34 33 32 32 32 31 31
2 3 3 2 2 2 3 2 2 1 3 10 11 7 6 5 3 3 4 5 7 10 12 12 12 12 12 11 10 8 8 12 14 13 13 14 14 14 15 14 13 13 13 15 17 17 16 15 15 16 15 16 21 26 27 26 21 19 20 18 17 19 21 23 25 25 26 28 29 29 30 31 33 34 34 34 34 33 33 33 32 31 31 30 30 29
3 1 1 0 1 0 1 1 1 1 4 8 7 5 7 7 5 5 5 5 7 9 9 9 10 12 12 11 11 11 11 13 13 12 13 14 15 15 16 15 14 13 12 12 15 18 19 16 15 17 19 19 20 23 26 26 23 20 18 16 15 17 18 19 21 22 23 27 29 29 31 32 32 34 34 34 34 33 33 32 30 30 30 30 29 28
4 3 1 2 2 2 1 1 2 2 3 6 7 6 6 7 7 8 8 6 6 8 8 8 11 13 13 12 12 11 11 12 11 11 11 11 12 13 14 14 14 14 14 14 16 19 19 17 16 18 19 20 22 23 24 26 26 22 17 15 15 16 15 16 19 22 24 27 28 30 31 32 33 34 35 34 34 33 32 31 29 29 29 29 28 27
4 4 1 1 4 5 4 3 3 5 4 5 6 6 6 6 7 8 9 8 7 8 8 8 11 13 12 12 12 11 11 11 11 10 10 10 11 12 12 11 12 14 15 15 16 17 17 17 17 17 17 19 21 23 23 24 25 22 17 15 15 14 14 14 14 16 20 24 27 29 29 29 30 32 32 33 33 32 32 32 30 29 28 28 27 26
4 5 3 3 6 4 2 2 7 7 4 3 5 5 6 6 6 6 7 7 8 10 11 10 10 12 12 12 12 13 12 11 10 10 9 9 11 12 12 11 11 12 13 14 15 16 16 15 14 13 14 15 17 20 22 22 21 20 16 15 14 13 13 12 11 10 12 15 20 24 26 27 27 27 28 29 29 29 29 30 29 29 28 27 26 24
5 6 5 5 6 4 2 4 9 7 2 3 4 4 5 6 6 6 6 8 9 11 13 12 10 11 12 11 12 13 14 13 12 11 8 7 7 9 11 10 10 11 14 17 17 16 14 12 11 11 11 11 14 17 19 19 18 17 15 14 12 11 12 11 9 8 8 9 12 16 20 24 25 25 25 25 25 24 24 25 26 26 27 27 27 25
6 5 5 6 6 5 3 4 9 7 1 4 3 4 4 5 6 6 6 8 10 11 13 14 12 11 12 11 11 12 14 14 14 13 11 8 6 6 8 10 11 12 14 16 16 15 13 11 10 10 10 10 12 16 17 18 16 15 13 13 11 10 10 9 8 7 5 6 9 12 15 19 22 23 23 22 21 20 19 19 21 22 23 25 27 27
6 5 5 5 5 4 2 5 7 7 5 4 5 9 8 6 7 7 5 5 8 9 10 12 12 12 12 11 10 11 12 14 14 14 13 10 9 8 7 8 11 13 14 16 16 16 15 13 11 11 11 11 12 15 16 16 15 14 13 12 11 10 10 8 6 5 4 3 6 9 13 16 18 20 21 21 20 19 16 14 15 17 18 19 21 24
7 7 7 5 5 6 7 8 7 7 8 9 10 12 9 3 4 9 9 4 4 7 9 9 10 11 11 12 11 10 10 13 14 13 12 11 12 13 12 11 11 12 14 15 15 15 15 15 14 13 12 12 12 13 14 15 14 14 13 12 11 10 10 8 6 4 2 2 4 8 11 14 17 19 20 21 21 21 18 14 11 10 12 15 17 19
Wind_Direction
162 167 198 212 214 205 206 203 200 217 209 156 162 195 200 213 252 247 240 236 157 171 232 217 219 224 205 189 190 183 186 191 187 184 186 187 187 188 190 193 196 200 199 189 189 192 193 195 195 195 195 194 194 195 195 195 196 197 197 198 199 201 202 201 202 203 205 208 211 215 218 221 224 225 227 225 224 225 223 222 226 232 236 238 236 234
163 196 221 219 210 201 200 192 190 222 247 245 175 211 230 221 247 262 250 248 163 168 248 231 226 236 218 194 190 180 185 196 192 188 191 191 191 193 193 195 198 198 190 184 189 192 192 194 194 194 195 194 193 194 195 195 196 197 198 199 200 200 200 202 203 203 206 209 211 213 216 220 222 223 225 223 222 222 222 223 227 231 236 239 238 236
182 221 229 214 171 174 183 175 182 206 229 243 237 224 250 233 250 275 257 233 169 188 264 231 214 241 231 198 188 184 189 199 197 193 192 189 189 194 197 198 196 191 184 186 190 191 192 193 192 194 195 195 195 194 195 196 196 197 198 200 200 199 201 203 204 205 207 210 212 214 216 219 221 224 226 224 223 223 225 226 227 232 236 239 238 236
190 233 226 179 145 180 185 176 179 193 217 224 225 221 236 219 189 249 256 278 200 211 231 200 210 251 237 182 194 201 200 200 200 201 197 190 192 195 196 196 193 188 187 188 190 190 191 193 193 194 196 195 195 195 195 195 195 196 198 200 200 201 202 203 204 206 208 209 211 214 217 220 221 225 227 227 227 228 230 230 229 232 236 238 238 235
218 254 181 149 169 188 188 191 182 188 216 218 221 221 223 220 209 250 293 338 328 290 203 155 267 289 231 175 208 212 210 213 209 204 205 206 203 197 192 196 197 194 190 188 189 189 190 193 194 195 195 195 195 195 195 195 195 197 199 200 201 202 203 204 205 206 206 205 207 210 213 216 217 221 225 224 225 229 231 230 229 231 234 237 237 234
238 253 143 160 183 187 194 203 192 189 210 228 224 218 216 220 222 290 327 347 2 326 277 164 212 284 262 207 216 200 196 215 209 200 209 212 203 194 195 199 200 199 195 191 191 189 190 192 193 194 195 195 196 197 197 196 197 198 199 200 201 202 203 205 206 205 203 202 202 203 203 204 206 209 215 218 221 225 226 226 228 229 232 235 237 235
231 211 160 178 181 179 197 212 200 183 199 238 215 198 207 209 191 158 94 258 209 250 272 158 176 258 305 253 226 190 192 208 201 203 213 209 196 197 203 201 197 199 196 195 195 191 189 190 191 194 195 196 197 198 197 197 198 198 199 200 201 202 203 205 205 203 202 201 201 202 203 205 205 205 211 217 220 222 222 224 228 229 230 233 235 236
191 187 184 195 180 177 198 210 197 175 196 235 177 159 186 194 195 186 176 222 237 263 280 247 150 223 286 264 233 186 198 212 202 209 214 203 201 205 208 204 197 199 195 193 195 192 191 190 192 195 196 198 198 197 196 196 197 199 199 200 201 202 203 204 204 203 202 202 201 203 205 208 209 210 214 217 218 220 222 223 226 228 229 231 233 237
179 188 187 187 184 190 202 204 188 176 204 225 149 147 167 184 201 186 177 229 259 322 277 240 151 207 265 272 274 177 198 219 211 214 214 202 204 207 208 206 200 199 196 194 197 195 193 191 193 196 197 198 198 196 196 197 198 199 199 200 200 201 202 203 203 203 204 204 203 203 204 208 212 215 217 218 218 219 220 221 222 225 227 229 231 235
195 186 179 184 198 201 204 203 178 182 212 203 142 147 149 170 186 169 181 209 209 242 253 233 170 208 267 273 278 180 197 219 216 218 214 207 209 208 208 208 202 197 194 197 200 198 197 193 194 196 196 197 198 198 198 197 198 198 199 199 200 201 201 202 202 203 205 205 205 205 205 207 211 214 216 218 218 218 218 218 219 221 225 227 230 233
237 183 174 191 206 186 186 198 176 187 201 155 133 137 102 139 136 143 176 155 199 243 244 224 177 188 253 261 238 214 205 208 209 217 216 211 214 212 212 210 201 195 195 198 200 198 198 196 195 195 195 195 197 198 198 198 198 197 198 198 199 201 201 201 202 203 205 205 206 207 207 208 210 211 212 212 214 214 214 215 217 220 223 226 229 231
245 221 193 202 198 168 162 198 193 193 192 164 154 151 127 323 88 135 77 130 218 241 241 213 172 184 232 253 235 229 225 210 204 211 211 208 211 212 212 208 201 198 197 196 195 193 193 195 195 194 194 195 195 196 196 197 197 197 198 198 198 201 201 201 202 204 205 205 206 209 209 209 209 209 210 210 211 212 213 215 216 218 221 224 227 228
232 225 232 244 199 174 167 192 200 197 192 184 169 150 175 232 160 194 216 208 226 246 243 176 154 193 229 240 238 235 233 221 211 211 210 207 208 209 208 205 201 199 196 192 190 190 190 194 196 193 193 193 193 194 195 196 196 196 198 197 198 200 200 201 202 203 205 206 207 209 209 210 209 209 211 212 212 213 214 216 216 217 219 221 223 225
225 217 217 228 218 180 178 188 191 188 187 190 182 166 182 189 186 210 218 238 245 258 260 151 148 218 235 228 231 230 232 226 214 216 215 211 211 210 208 202 200 199 195 194 191 189 193 195 195 193 193 193 193 194 194 195 196 196 197 197 198 200 200 201 202 203 205 206 209 210 209 210 209 210 212 213 214 215 216 217 218 220 221 222 224 226
217 221 210 209 221 185 188 194 181 161 174 194 186 170 181 181 185 199 195 221 235 253 263 176 166 205 189 210 221 220 229 223 213 222 219 217 217 209 201 196 197 200 197 198 195 194 197 195 193 193 194 194 193 193 193 194 195 195 196 197 197 199 199 200 202 203 204 207 209 209 209 209 209 210 212 214 216 217 218 219 220 222 224 226 229 230
248 262 262 292 321 265 205 198 160 145 181 198 172 175 202 183 166 181 197 197 178 222 246 213 206 214 204 254 244 221 231 220 213 225 221 222 219 191 181 188 193 199 197 197 199 199 199 194 192 194 195 195 194 193 194 194 194 195 195 196 197 199 199 200 202 203 205 207 208 209 209 209 209 210 211 213 216 218 220 221 222 224 226 229 231 233
316 280 312 333 324 298 237 223 178 168 183 180 173 194 198 155 150 201 243 203 123 207 235 211 240 260 252 273 279 215 227 224 219 225 224 226 212 178 185 193 193 196 194 196 200 200 197 192 193 195 195 194 193 193 195 195 195 195 195 195 197 198 199 200 202 203 205 207 208 208 209 209 210 210 212 214 216 218 220 222 224 226 228 230 233 235
357 285 299 312 292 302 343 314 225 181 157 149 188 191 147 103 154 191 239 258 195 227 259 243 225 221 199 248 276 162 203 225 226 222 225 229 207 185 198 199 194 195 193 196 200 198 194 192 194 195 196 197 195 195 196 195 195 196 196 196 195 196 198 200 202 203 205 206 207 208 209 209 210 211 213 215 217 217 218 221 224 226 229 232 234 236
27 295 296 274 246 310 339 316 247 199 179 178 177 166 149 153 187 181 205 222 213 234 274 282 239 212 204 224 214 184 200 217 224 223 226 226 210 199 206 203 197 196 193 197 199 195 191 191 193 195 197 198 197 196 195 195 195 196 197 197 196 197 199 200 201 203 205 206 207 208 209 210 211 212 214 215 216 216 218 221 224 226 229 233 234 235
352 315 284 312 351 326 318 246 218 215 208 196 159 159 171 186 188 182 188 190 197 224 247 276 284 243 227 210 181 193 204 206 213 220 222 221 215 208 207 203 197 193 194 197 197 194 192 193 195 195 196 196 196 195 193 192 194 196 196 197 197 198 199 199 200 202 204 206 207 208 209 210 211 212 214 214 215 216 219 221 223 225 229 231 233 235
353 84 261 314 347 334 277 224 194 196 212 206 187 177 182 195 190 193 205 173 174 195 206 243 264 253 246 207 180 193 203 202 204 209 214 218 214 212 211 204 195 192 197 198 196 196 195 195 196 194 194 193 192 191 190 191 193 195 196 196 196 197 197 198 199 201 203 205 206 207 209 210 211 212 213 214 215 217 220 221 222 225 228 230 232 234
344 75 259 303 334 316 267 281 333 25 353 253 237 205 189 185 146 183 226 219 184 197 187 197 253 261 252 210 187 195 201 204 203 201 211 218 209 207 213 207 196 194 199 199 197 198 197 196 194 190 187 186 187 189 190 191 192 193 195 195 196 195 196 197 198 200 202 204 205 207 209 210 211 212 213 214 215 218 219 220 222 225 227 228 231 233
292 159 278 280 273 263 267 273 283 284 275 252 247 259 226 195 152 186 222 213 195 215 181 185 260 267 250 211 199 203 200 205 208 199 206 220 210 203 212 211 201 198 201 200 198 198 197 195 188 182 181 184 186 188 188 188 190 192 194 195 195 195 196 197 198 200 201 202 204 207 208 209 210 211 212 213 215 217 219 220 222 224 225 227 230 232
311 346 331 297 283 272 270 270 280 285 265 193 287 339 327 290 280 242 218 177 187 209 185 215 256 261 256 227 217 233 226 207 213 207 208 219 213 199 208 212 205 203 204 201 199 199 194 186 179 177 181 184 185 186 186 187 189 191 192 193 194 196 197 197 198 199 200 202 204 206 207 208 209 210 211 213 215 217 218 220 221 222 224 227 228 230
317 306 67 9 346 303 284 262 25 6 20 12 320 324 322 333 345 334 250 152 209 209 183 195 243 252 254 279 262 279 292 266 235 225 223 226 218 199 202 209 206 204 204 201 199 194 182 174 176 180 184 185 185 186 185 186 187 189 191 192 194 195 196 196 197 198 199 201 203 204 205 207 208 210 211 212 215 217 218 219 220 221 223 225 227 229
279 202 109 95 143 216 230 191 200 327 333 321 306 310 321 342 348 336 301 228 233 213 182 189 235 243 196 149 246 249 250 261 261 261 255 247 241 221 205 207 208 204 202 200 197 189 180 178 181 184 184 185 186 186 184 184 186 188 189 191 193 194 194 195 196 197 198 200 201 202 204 206 207 209 211 213 214 216 218 218 219 220 222 224 226 228
279 219 165 173 191 224 251 266 270 278 290 296 302 306 308 310 312 304 257 244 220 191 199 215 236 247 233 214 236 242 231 233 240 249 251 245 243 236 219 211 209 206 203 199 193 185 181 182 185 185 185 186 187 186 184 184 185 186 187 189 192 193 193 193 195 196 197 199 201 202 204 205 208 210 212 214 215 216 217 217 219 220 222 224 225 227
303 293 225 204 216 243 263 280 282 278 278 282 289 293 292 292 293 261 239 257 260 180 225 230 236 258 256 232 213 226 236 238 232 228 231 233 234 232 226 215 208 208 205 197 189 183 182 185 187 186 185 185 185 184 183 184 185 185 186 187 189 190 191 192 193 195 197 199 200 203 205 206 209 210 212 214 215 215 216 217 218 219 221 223 225 227
263 270 240 217 234 250 256 271 275 272 270 267 267 272 277 283 282 259 246 254 251 240 252 240 218 241 258 256 237 218 217 225 232 230 229 234 233 230 226 217 209 206 201 193 187 184 185 187 186 185 185 184 181 180 179 182 183 183 184 186 187 189 191 191 192 194 196 198 200 204 206 207 208 210 212 213 213 214 215 217 218 219 221 223 225 227
270 264 236 230 261 264 263 270 269 262 263 265 261 260 265 275 277 267 255 245 241 259 278 262 237 237 251 272 284 259 217 220 238 256 256 245 237 226 218 214 208 201 195 191 187 186 188 188 186 183 181 179 179 179 178 179 181 182 184 185 186 188 190 190 192 194 195 198 202 204 205 206 208 209 210 211 213 214 216 217 218 218 220 222 225 227
293 279 279 299 297 281 273 264 254 255 263 266 269 269 271 285 287 269 252 242 233 246 260 259 256 252 261 351 343 313 324 329 313 313 293 265 244 220 208 208 203 193 189 189 187 185 187 186 182 177 176 179 181 180 180 181 182 183 183 184 186 188 189 189 191 193 195 199 202 203 204 205 206 208 209 210 212 215 216 217 217 218 220 222 224 226
294 301 333 23 356 287 271 253 284 295 280 255 263 281 286 304 317 298 265 275 239 228 248 256 257 263 314 347 335 335 20 24 2 342 325 303 273 224 204 202 196 187 185 188 186 186 186 182 177 175 178 182 181 181 183 182 180 181 183 185 186 187 187 188 191 193 196 199 200 201 203 204 205 207 208 210 212 214 216 217 217 219 220 222 223 225
237 281 307 34 243 278 266 301 311 308 286 233 236 279 279 313 346 333 349 13 348 248 233 244 251 296 319 317 321 5 32 31 14 355 334 315 296 252 215 203 198 191 187 185 184 183 182 179 179 180 181 181 181 184 185 182 181 184 186 185 184 184 185 188 191 193 195 198 199 201 202 203 204 206 208 210 212 213 215 215 216 218 220 221 223 224
227 247 268 234 196 267 286 319 310 254 207 195 157 64 313 360 15 346 335 10 358 315 265 260 273 314 319 313 356 57 55 46 23 360 348 334 315 277 228 204 201 199 194 189 187 184 182 181 181 182 182 183 184 185 184 183 184 184 182 180 181 182 184 187 189 192 195 197 200 201 202 203 204 206 208 210 211 212 213 214 216 218 219 221 222 223
219 237 254 232 196 258 312 335 238 185 195 180 141 53 4 55 16 340 312 8 12 358 348 338 322 320 321 312 294 112 88 57 25 18 12 359 341 311 241 197 186 188 191 192 188 182 179 178 177 178 182 183 182 180 180 181 180 175 175 178 180 181 183 185 188 192 195 198 200 201 202 203 204 206 208 210 211 212 213 214 216 218 219 220 221 222
208 230 244 229 206 280 330 320 189 214 319 269 133 26 13 40 13 349 322 18 19 7 354 346 333 326 325 306 285 276 311 331 20 28 15 2 357 348 323 239 185 178 178 183 185 181 179 179 175 174 174 173 173 174 176 177 175 172 175 178 179 181 183 185 189 193 196 198 200 201 202 203 204 206 208 209 210 211 213 214 216 218 219 220 221 223
197 219 233 234 203 171 236 258 264 285 318 30 56 3 4 344 338 339 302 340 16 10 355 344 333 329 331 320 302 291 286 321 25 21 6 1 358 351 345 347 356 166 162 161 164 162 162 163 160 158 159 162 168 173 174 174 173 172 173 175 177 180 183 186 190 194 196 198 200 202 203 203 204 206 208 209 209 210 213 215 217 218 219 219 220 222
198 214 214 227 219 135 250 282 299 270 192 170 278 322 330 291 288 291 259 291 12 6 351 343 335 332 334 330 317 300 294 34 35 7 354 355 353 349 355 8 22 56 119 138 139 136 139 143 146 150 154 157 165 170 171 171 171 170 170 174 178 180 183 188 193 195 197 200 202 203 204 204 206 207 207 208 209 211 214 215 217 219 218 218 219 222
200 215 223 253 264 98 145 241 251 228 193 203 312 315 318 315 305 270 215 242 11 356 345 341 336 333 333 333 335 349 52 65 45 3 349 349 349 352 2 16 31 39 47 87 119 133 140 142 144 149 153 157 163 169 170 170 169 168 171 176 179 181 185 191 196 197 199 203 204 205 205 205 207 208 208 208 210 212 215 216 218 219 219 218 220 223
194 204 216 229 236 227 223 237 259 243 237 329 327 319 318 321 349 153 179 10 359 345 339 339 334 330 333 340 2 37 55 65 65 9 353 352 357 6 14 23 35 42 42 53 85 117 133 139 143 148 156 162 167 169 170 169 169 172 176 178 179 183 189 195 198 200 203 206 206 206 206 207 207 209 209 210 212 214 216 217 218 218 218 218 220 224
181 186 204 211 227 237 224 231 270 254 289 335 326 319 316 309 144 125 57 358 347 336 335 338 333 331 341 1 24 39 40 50 56 29 14 13 15 17 20 27 38 46 48 49 62 88 107 119 128 137 151 162 166 167 168 169 171 174 176 176 180 188 194 197 200 202 205 207 207 207 208 208 209 210 212 213 215 216 217 217 218 217 217 218 220 222
165 172 188 201 219 227 203 219 269 244 341 336 324 321 328 344 120 68 4 2 347 334 332 338 338 338 349 9 20 12 15 39 40 32 26 22 19 19 20 25 35 42 47 49 54 68 81 90 97 104 122 149 160 164 166 167 165 165 167 171 180 189 193 197 200 202 205 207 207 208 209 209 211 212 214 215 216 216 217 218 218 218 218 218 219 221
132 169 173 188 216 213 184 202 251 214 343 338 334 344 15 41 59 5 348 357 352 339 334 339 345 346 351 2 3 356 16 35 32 29 30 25 21 22 20 21 26 30 37 42 44 54 69 75 75 76 88 121 147 156 159 155 146 144 151 159 170 181 187 193 197 199 203 207 209 210 210 211 212 213 214 216 215 215 217 219 218 218 218 217 217 219
35 38 162 295 337 360 164 151 348 290 333 352 9 45 51 40 24 4 357 354 350 345 341 342 347 349 355 358 353 356 18 30 25 24 26 21 17 19 18 19 21 23 28 34 38 49 60 65 66 66 71 89 114 133 142 140 130 126 130 136 149 164 177 188 193 196 202 207 210 211 211 212 213 214 215 216 215 215 217 218 217 217 217 216 216 217
18 4 225 231 311 337 290 295 335 335 9 34 48 57 47 33 19 11 6 359 352 347 344 345 345 349 357 360 354 1 18 20 16 20 20 12 11 13 13 13 15 18 21 26 34 46 55 60 63 65 64 71 87 102 117 123 120 114 113 120 133 146 158 173 186 195 202 207 209 211 212 213 214 215 216 216 215 214 215 215 215 214 215 215 214 215
345 353 346 254 325 322 270 255 348 360 21 56 67 63 48 30 14 7 4 360 350 340 341 348 347 344 351 358 357 2 10 10 11 16 15 9 7 7 6 6 8 13 19 20 23 36 51 58 60 62 62 65 75 85 94 103 107 105 105 113 123 133 143 154 169 186 198 205 209 211 211 211 213 215 216 217 216 214 215 215 214 213 213 213 212 213
343 358 13 356 342 326 218 74 12 346 334 71 79 75 60 32 10 7 5 353 341 336 338 345 347 341 344 357 1 356 357 5 11 12 11 12 9 5 4 4 3 4 10 14 16 27 45 55 54 56 59 62 71 80 85 89 93 95 98 106 115 126 135 137 143 159 180 196 207 211 211 211 213 215 216 216 216 215 215 216 214 213 212 210 210 211
343 348 1 358 339 305 273 6 356 328 277 113 83 73 69 39 8 6 7 349 338 338 337 339 347 344 340 352 2 354 348 355 5 5 3 10 12 6 1 360 360 1 5 9 15 25 38 50 55 59 60 63 73 81 82 84 86 88 90 94 102 118 129 129 128 133 151 178 196 206 210 212 214 214 214 214 213 212 213 214 214 213 213 212 211 209
329 336 351 339 316 287 278 2 3 351 10 117 75 13 18 13 349 349 3 351 338 336 335 336 343 343 336 343 1 359 349 349 356 355 350 352 7 11 2 356 355 358 1 2 9 22 33 37 48 59 60 65 76 81 80 80 81 82 83 84 87 98 110 117 119 114 123 162 184 196 206 209 209 208 207 204 203 202 204 208 211 214 216 217 217 215
335 343 347 330 311 304 327 4 360 337 292 270 303 313 319 334 331 322 331 344 332 325 329 333 335 334 332 339 356 2 351 343 347 349 344 340 348 358 4 6 358 355 358 360 3 15 26 28 35 48 52 57 68 73 72 72 74 74 75 77 80 84 87 94 105 105 105 145 177 192 199 198 197 197 196 193 190 187 187 193 203 210 213 215 217 219
342 336 330 319 300 294 299 309 310 290 275 277 285 290 293 309 319 303 298 299 301 305 313 322 323 323 326 332 343 357 353 340 339 344 339 332 336 343 354 10 8 353 352 359 2 6 14 21 29 36 37 44 56 61 61 62 64 64 64 67 74 78 76 75 87 104 115 152 179 186 188 187 184 183 184 185 184 181 175 171 176 191 201 206 211 214
Height
752 764 767 761 756 754 754 756 759 759 759 763 765 766 766 767 765 756 752 746 741 754 758 753 755 752 750 752 749 748 748 751 754 756 758 759 760 761 763 764 765 765 764 766 771 774 777 781 784 787 790 792 795 797 800 802 804 806 809 811 813 816 819 822 824 826 828 830 831 833 834 835 836 839 841 843 845 846 848 849 851 852 853 854 855 856
753 766 760 748 748 750 753 756 758 760 760 763 766 767 767 767 764 753 750 746 740 752 756 750 754 753 747 749 747 746 751 752 751 753 755 755 757 758 759 760 760 761 763 766 769 771 775 778 781 785 787 789 792 794 797 799 801 804 806 808 811 814 816 818 820 823 825 826 828 830 831 833 835 837 839 841 843 845 847 848 850 851 852 853 854 855
762 761 747 741 747 750 751 753 756 760 761 764 767 770 771 767 762 755 748 745 743 751 754 750 755 753 744 745 745 744 746 745 742 743 745 748 753 755 755 756 757 760 763 765 766 768 771 775 778 782 784 786 788 791 794 796 799 802 804 806 809 812 813 815 817 819 821 824 826 828 830 833 835 837 838 840 842 845 846 847 849 850 851 852 853 855
765 750 737 741 747 748 753 753 755 760 762 764 766 772 773 764 762 761 752 747 745 747 750 749 753 750 743 745 746 741 737 737 736 737 738 741 744 745 746 749 753 758 761 762 763 765 768 772 775 777 780 783 786 788 791 793 796 799 801 804 806 809 811 813 815 817 819 823 826 829 831 833 835 837 839 841 842 844 845 847 848 849 850 851 852 854
751 737 733 741 745 747 753 754 755 761 764 762 761 765 768 761 760 761 755 750 747 746 745 749 760 755 744 749 748 740 739 739 738 740 742 742 740 741 745 748 751 752 755 758 760 761 764 766 769 773 777 780 783 785 787 789 792 795 798 800 803 806 809 811 813 815 819 822 826 828 831 833 835 836 838 840 841 842 844 845 846 847 849 850 852 853
744 734 732 739 743 746 751 753 754 758 764 765 757 755 758 758 759 759 756 755 760 762 749 750 773 767 745 747 747 740 744 744 741 743 744 741 741 744 747 747 747 749 751 753 754 756 758 762 767 771 774 777 779 781 784 787 789 792 795 798 801 804 806 809 812 815 818 820 823 826 828 830 831 834 835 836 838 839 841 842 844 846 848 849 851 852
738 733 733 738 741 745 750 753 750 751 764 767 752 746 752 754 758 760 758 761 770 771 752 747 771 772 752 746 743 740 744 743 741 742 739 739 742 743 742 742 743 745 747 750 751 752 755 759 763 766 769 772 774 777 781 785 787 790 793 795 799 801 804 807 810 813 816 818 820 823 825 826 828 830 831 833 835 837 839 841 843 845 847 848 850 851
730 733 736 737 740 745 750 750 744 745 760 760 743 742 751 753 758 760 760 764 765 763 756 749 758 770 763 746 736 738 743 743 742 740 736 737 739 738 736 737 739 740 742 745 748 750 751 754 757 760 764 767 770 775 779 782 785 787 790 793 796 799 802 805 808 811 814 816 817 820 822 825 826 827 829 831 834 836 837 840 842 844 845 847 849 850
724 732 735 736 742 745 742 739 737 740 751 748 737 740 747 750 755 756 760 764 761 765 771 759 753 771 771 744 732 738 744 746 743 737 735 734 734 733 732 733 733 735 737 740 744 746 746 749 753 757 760 765 769 773 776 779 782 785 787 791 793 796 799 802 806 808 811 813 815 817 820 822 825 827 829 832 834 835 837 838 840 842 844 846 847 849
721 724 726 731 739 739 733 730 731 737 743 738 735 739 742 747 751 754 761 763 765 775 778 763 756 771 773 746 735 742 743 742 738 732 731 729 727 727 727 728 729 732 735 736 739 741 743 746 749 754 759 764 768 770 774 776 779 783 785 788 791 794 797 800 803 805 808 811 813 815 817 820 823 826 828 831 833 834 836 837 839 840 842 844 845 847
719 715 718 722 726 727 727 728 728 731 735 733 737 744 746 750 751 755 758 760 774 780 769 757 753 765 772 751 735 737 732 728 729 728 727 725 725 725 724 725 727 730 732 732 735 738 742 745 748 752 757 760 764 768 772 774 777 780 782 785 788 791 794 797 800 803 805 808 811 813 815 817 820 824 827 829 830 832 834 835 836 838 839 841 843 845
721 720 719 714 713 718 724 728 728 726 729 734 740 747 757 762 760 764 766 768 784 779 757 750 749 759 771 751 730 726 718 714 720 722 722 722 722 721 720 721 722 724 726 728 733 736 740 744 746 749 752 756 761 764 767 771 774 777 779 783 786 789 792 794 797 800 803 806 808 810 813 815 818 821 824 826 828 829 831 833 834 836 838 839 841 843
727 723 718 713 709 712 724 732 734 731 731 738 744 751 768 779 778 783 782 776 779 769 748 746 751 758 758 737 722 720 713 709 710 710 712 713 713 713 713 715 716 718 721 725 729 732 736 739 740 743 747 751 755 759 763 767 770 773 776 779 782 785 789 792 794 797 800 803 805 807 810 813 816 819 821 823 825 827 829 831 833 834 836 837 838 840
733 725 717 718 714 708 716 730 739 740 738 741 746 754 770 783 789 795 789 778 775 763 743 741 752 759 749 727 713 710 706 703 703 702 702 702 703 705 705 709 712 715 718 721 724 727 729 731 734 738 742 746 750 754 758 762 766 769 773 775 779 782 785 789 791 794 797 799 802 805 808 810 813 816 818 820 822 824 827 829 831 832 834 835 836 837
750 741 723 718 719 711 711 719 726 731 736 737 736 744 758 766 775 785 783 778 774 763 747 745 754 754 740 720 703 697 695 695 697 696 695 696 696 698 702 708 712 715 716 718 720 722 722 724 729 733 737 741 745 749 754 758 762 765 768 771 775 778 782 785 788 791 794 796 799 802 805 808 811 813 815 817 820 822 824 826 828 830 832 833 834 836
763 750 726 719 722 715 712 710 709 721 735 733 727 740 751 745 749 762 765 762 762 760 751 746 745 735 720 707 695 693 693 691 694 693 692 694 693 696 704 706 709 711 712 715 717 718 718 721 725 729 733 737 741 745 749 752 756 760 764 767 770 774 778 782 785 788 790 793 796 799 802 805 808 810 813 815 817 819 821 824 825 827 829 831 832 834
769 751 731 730 725 714 714 710 704 715 729 731 732 739 736 726 732 752 761 754 755 763 752 737 735 726 715 707 695 695 698 693 693 693 692 692 692 697 701 700 701 704 705 709 710 711 714 717 721 724 728 732 735 739 743 746 751 755 759 763 767 771 775 778 782 785 788 791 794 797 800 802 805 807 810 811 814 816 819 821 823 825 827 829 831 832
773 761 741 736 729 715 715 713 703 702 710 726 736 729 722 726 730 742 760 761 761 768 752 734 734 730 725 719 702 698 702 697 694 693 691 690 692 696 696 694 695 696 698 700 701 705 709 713 717 720 724 727 730 734 737 743 748 752 756 759 763 767 771 774 778 782 785 788 791 794 797 800 802 804 807 809 811 814 817 819 821 823 825 827 829 830
771 770 747 734 734 725 717 716 713 705 700 710 718 712 719 740 743 742 756 762 765 770 756 740 737 729 723 717 705 702 701 694 692 692 691 691 691 693 691 690 692 692 694 697 698 702 706 709 712 715 719 723 726 730 735 740 746 750 754 756 759 763 766 771 775 779 783 785 788 792 794 797 800 802 805 807 810 813 814 816 818 821 823 825 827 828
768 773 756 735 735 734 723 720 721 715 705 704 708 709 713 725 734 738 742 745 754 765 757 747 742 729 713 702 697 697 694 689 690 690 690 689 686 686 686 686 688 690 692 693 695 698 700 702 704 707 712 717 722 728 732 738 743 746 751 754 757 760 764 768 772 775 779 783 786 789 792 795 797 799 802 805 807 809 811 813 815 818 820 822 825 826
766 773 766 747 739 737 728 721 719 718 718 715 716 719 718 716 720 728 730 728 738 752 753 750 745 723 700 690 687 686 684 683 683 683 683 683 681 680 679 679 683 685 686 687 689 691 692 694 697 701 708 714 720 726 730 734 739 742 747 750 753 757 761 765 769 772 776 779 783 786 789 792 794 797 800 802 805 806 808 811 813 815 818 820 822 824
769 773 773 764 757 751 737 725 721 724 728 728 724 720 717 717 722 735 741 729 724 736 739 742 745 718 688 682 681 677 678 677 675 676 676 675 675 676 674 673 676 678 680 681 682 685 687 689 693 698 705 711 717 721 725 729 734 738 743 747 750 754 758 761 765 769 773 776 780 782 785 788 791 794 797 800 802 803 805 808 810 813 815 817 819 821
766 770 773 771 764 754 738 725 724 728 730 729 726 718 712 712 717 730 741 731 723 728 725 729 739 714 679 675 676 672 673 672 670 672 672 670 671 672 670 669 671 672 674 675 677 679 682 685 690 696 702 707 710 715 719 725 729 734 738 743 747 750 753 757 761 765 769 773 776 779 782 786 788 791 794 797 799 800 802 805 807 810 812 814 816 818
765 768 772 769 756 740 727 721 721 723 726 729 730 728 725 722 717 717 720 720 722 725 723 732 738 709 677 674 676 672 672 671 670 670 668 668 668 670 669 668 669 670 670 672 674 676 680 685 690 696 700 703 707 711 716 720 725 730 734 739 743 746 750 754 758 762 766 769 773 776 780 783 786 789 791 793 796 797 800 802 804 807 809 811 813 815
772 772 772 771 760 741 727 724 726 730 737 744 745 742 736 733 731 722 711 712 720 717 715 731 733 703 679 677 677 674 673 671 671 670 667 666 666 667 668 666 666 668 668 670 673 675 680 685 689 692 695 698 702 706 710 715 720 725 729 734 738 742 747 751 755 759 763 766 770 773 777 780 783 785 788 790 792 795 797 800 802 804 806 808 810 812
774 772 771 775 771 757 745 746 753 759 759 755 749 745 742 741 742 734 723 722 723 713 708 717 714 693 679 676 673 672 673 671 670 670 669 667 665 666 666 666 665 666 667 669 670 674 678 681 684 686 689 693 698 701 706 711 716 720 725 730 734 739 744 748 752 756 760 763 767 770 773 776 779 782 784 787 789 792 794 797 799 801 803 805 807 809
773 770 769 774 774 768 764 765 769 772 769 761 752 748 746 745 743 741 740 732 718 711 711 705 695 688 682 676 672 670 671 671 669 668 667 666 664 663 663 663 663 663 663 664 666 670 675 677 680 682 685 689 693 697 702 706 711 717 721 726 731 735 740 744 749 753 756 760 763 766 769 772 775 777 780 783 785 788 791 793 795 797 800 802 804 805
775 773 770 771 771 769 768 767 765 766 767 764 758 751 745 742 741 743 744 730 712 711 712 697 688 689 681 673 673 671 667 668 668 666 664 662 660 659 659 659 660 660 660 661 664 667 671 674 676 678 681 685 690 695 700 704 709 713 717 722 727 732 737 741 745 749 752 756 759 762 764 767 770 773 776 779 782 784 787 789 792 794 796 798 800 801
778 776 770 769 770 767 766 765 763 764 764 760 757 752 744 740 740 739 736 726 716 713 705 690 686 686 672 662 666 667 664 663 661 659 658 657 656 656 656 656 657 657 658 659 661 663 666 668 671 674 678 681 687 692 697 702 706 711 715 720 724 728 732 736 741 744 748 752 754 757 760 763 767 770 773 776 779 782 784 786 788 791 793 795 796 797
778 776 769 768 770 767 764 762 759 760 760 755 751 746 740 736 733 729 726 720 717 714 702 687 682 676 666 661 661 661 662 660 657 657 657 656 655 654 653 653 652 652 654 655 657 658 660 663 665 670 674 679 684 688 693 698 702 706 711 715 719 724 727 732 737 740 744 747 750 753 757 761 764 767 771 774 776 779 781 783 785 787 789 791 792 794
780 776 767 767 771 765 759 757 755 756 757 754 747 739 735 733 727 722 719 713 712 711 700 691 687 676 665 665 664 662 662 660 658 659 658 656 653 650 649 649 647 647 649 651 653 654 656 659 663 668 673 677 680 684 688 692 697 702 707 711 715 719 724 728 733 736 740 743 747 751 755 758 761 764 767 770 772 775 777 779 782 784 785 787 789 791
782 778 769 770 772 763 756 755 756 755 753 750 744 737 734 734 727 720 717 713 711 705 693 689 688 678 671 672 669 664 662 662 663 663 660 657 652 647 646 645 643 644 645 647 650 652 654 658 662 666 669 672 676 681 685 689 694 699 703 706 711 715 720 725 729 733 736 740 744 748 752 755 758 761 764 766 769 771 773 776 778 780 782 784 786 788
782 782 776 772 770 762 756 758 759 755 748 741 737 733 732 732 728 722 717 714 714 709 699 691 687 682 682 680 673 667 666 667 667 666 663 659 652 645 643 642 641 640 641 643 646 648 651 654 656 659 662 667 671 675 680 684 689 693 697 702 708 713 717 721 725 730 734 737 741 744 747 751 754 757 760 762 764 767 770 772 774 776 778 780 782 784
781 782 778 773 770 764 758 759 759 753 743 732 728 728 727 726 728 728 722 716 713 710 705 700 694 691 687 681 675 673 670 668 667 665 661 657 653 647 642 640 640 640 640 641 642 643 646 649 651 655 658 662 667 671 677 682 686 691 697 702 707 711 715 719 723 727 731 734 737 740 744 748 750 753 756 758 761 764 766 768 770 771 774 776 778 780
781 781 777 774 772 766 761 761 757 748 736 724 721 723 721 719 723 725 719 713 711 708 705 703 699 693 686 680 676 672 668 666 665 661 657 654 651 647 642 637 637 639 640 642 643 643 645 647 650 654 657 661 666 672 678 682 687 692 697 701 705 709 712 717 721 724 728 731 734 737 741 743 746 749 752 754 757 760 762 764 766 768 770 772 773 775
780 780 777 774 772 767 764 762 752 738 727 720 720 721 720 720 724 727 722 714 709 709 706 703 698 690 685 681 675 669 666 664 662 660 656 653 650 648 645 639 635 636 638 640 641 642 643 645 648 652 656 661 667 671 676 681 686 691 695 699 703 707 710 714 718 721 724 727 730 734 737 740 743 746 748 751 754 756 758 760 762 764 766 768 769 771
776 778 777 775 770 765 765 764 752 737 729 727 727 726 727 729 730 734 734 721 708 708 709 706 699 691 685 680 675 669 664 662 664 664 659 655 652 650 646 641 636 635 635 637 639 641 642 645 648 652 656 661 666 670 674 679 684 688 693 697 701 705 709 712 714 717 721 724 727 729 732 736 738 741 744 747 750 752 754 756 758 760 762 764 766 767
772 774 775 774 768 764 766 764 752 738 730 731 733 729 728 729 726 730 736 724 710 710 711 708 703 694 687 681 674 667 663 667 675 674 666 660 657 653 649 644 638 636 635 635 638 641 644 646 649 653 657 661 666 670 674 678 682 686 691 695 699 702 706 709 711 714 717 720 722 725 728 732 734 737 740 743 745 747 749 751 753 755 757 760 761 763
770 771 772 774 772 770 770 765 754 740 730 732 734 728 725 725 723 727 732 724 715 715 714 710 706 698 690 684 675 668 669 679 686 681 672 666 661 657 653 647 642 639 638 637 637 640 643 646 649 653 657 661 665 669 672 676 681 685 689 693 696 700 703 705 707 710 713 716 718 722 725 728 731 734 737 739 741 743 745 747 749 751 753 756 757 759
772 773 774 777 777 772 769 765 756 743 733 732 731 726 721 721 722 726 729 725 721 721 718 714 710 702 693 685 678 675 679 685 688 682 674 668 665 660 656 651 647 644 642 641 641 641 643 646 649 653 656 659 662 666 670 674 678 682 686 689 693 696 698 700 703 707 709 712 716 719 722 725 728 731 733 735 737 739 740 743 745 747 750 752 754 756
772 771 770 772 772 768 765 763 754 741 733 732 730 724 718 716 721 731 734 732 731 727 722 718 713 706 697 689 685 686 686 684 682 678 673 670 668 664 659 655 651 648 647 647 646 645 647 648 650 652 655 657 660 664 668 671 675 680 684 687 691 693 695 698 701 704 707 710 714 717 720 722 725 727 730 731 733 735 737 739 742 744 746 749 751 752
767 766 765 766 766 763 760 758 750 740 734 732 727 720 715 717 729 739 738 736 736 732 726 721 716 710 703 696 693 693 688 681 678 676 674 673 672 669 665 660 656 654 653 652 651 651 651 652 653 655 656 658 660 663 666 670 674 678 682 686 689 691 694 697 700 702 705 708 711 714 717 719 722 724 726 729 731 733 735 737 739 741 743 745 747 749
761 761 761 760 757 755 754 752 748 743 737 731 726 723 724 731 741 744 738 736 738 734 729 724 719 715 709 703 699 695 689 683 681 680 679 677 675 673 670 666 663 661 659 658 658 657 656 656 658 659 659 660 661 663 666 670 674 678 681 685 688 690 693 696 698 701 704 706 708 711 714 716 718 720 723 725 727 730 731 733 735 738 740 742 744 746
761 762 763 760 753 752 753 750 748 745 740 735 733 736 740 744 746 743 740 739 738 734 731 727 722 718 714 709 704 698 692 690 688 686 684 683 681 679 676 672 670 667 665 664 664 662 661 661 662 663 663 664 664 666 668 670 673 678 681 684 687 689 691 694 696 699 701 703 705 708 710 713 715 717 719 721 723 725 727 729 732 734 736 738 740 742
763 761 763 761 755 754 754 749 745 743 741 739 740 743 746 747 746 743 742 741 738 735 732 729 724 719 715 712 709 703 698 697 694 692 690 690 687 685 682 679 676 673 671 670 668 667 666 666 667 667 668 668 668 669 670 672 674 677 681 684 686 687 689 692 694 696 698 700 702 704 706 709 711 713 715 717 719 721 723 726 728 730 732 735 737 739
762 758 759 760 759 755 751 747 744 743 743 742 743 745 746 747 746 744 743 741 739 736 732 729 727 722 717 714 712 708 705 703 699 696 695 694 692 690 688 685 682 679 677 675 673 673 672 671 671 671 672 673 673 673 674 675 676 678 681 684 685 686 688 690 691 693 695 697 699 701 703 705 707 709 711 713 715 717 719 721 724 726 728 731 733 735
761 758 759 764 765 757 749 747 747 747 744 743 743 744 746 747 746 745 744 742 740 736 732 730 728 725 720 717 714 711 708 706 703 701 700 698 697 695 692 690 687 684 682 680 679 678 676 676 676 676 676 677 677 677 678 678 679 681 682 684 685 686 687 689 690 691 693 694 696 698 700 701 703 706 708 710 713 715 717 718 720 722 724 726 729 731
764 760 762 767 766 758 751 750 751 747 743 743 744 745 746 746 745 744 743 741 739 737 734 731 729 727 723 718 716 714 711 706 704 704 703 703 702 700 697 694 691 688 686 684 683 682 681 680 681 681 681 682 682 682 681 681 681 683 683 684 685 686 687 688 689 690 691 693 694 695 696 698 700 703 705 708 710 712 714 716 718 719 721 723 725 727
767 765 767 769 767 759 753 753 753 750 745 744 744 743 743 744 744 743 742 741 740 739 737 733 731 729 725 721 719 718 715 709 706 705 705 704 703 703 701 697 694 691 689 688 686 685 684 684 684 684 684 685 685 684 683 682 683 683 683 684 685 685 686 687 688 689 691 692 693 694 695 696 698 700 703 705 707 709 712 714 716 717 719 720 722 724
769 770 770 770 768 762 756 756 759 759 755 749 745 743 742 743 743 742 741 741 741 741 740 737 734 731 727 723 721 721 719 714 710 708 706 704 702 702 701 699 696 693 691 690 688 687 686 686 685 685 685 685 685 684 683 683 683 683 684 684 684 685 686 687 688 689 690 691 692 693 694 696 697 699 701 703 705 707 710 712 714 715 717 718 720 722
772 772 771 770 769 764 758 757 758 760 757 751 746 743 742 742 743 742 740 741 742 741 740 739 737 734 730 726 723 723 722 718 713 711 710 706 703 701 699 699 698 696 693 692 690 689 688 687 686 685 685 685 684 684 684 684 684 684 684 684 684 684 685 686 688 689 690 691 692 693 694 695 696 697 699 701 703 705 708 710 712 714 715 717 718 720